Other Public Products
Issued by NWS Grand Forks, ND

Home | Current Version | Previous Version | Text Only | Print | Product List | Glossary Off
Versions: 1 2 3 4 5 6 7 8 9 10 11 12 13 14 15 16 17 18 19 20 21 22 23 24 25 26 27 28 29 30 31 32 33 34 35 36 37 38 39 40 41 42 43 44 45 46 47 48 49 50

591
FPUS83 KFGF 221331
OPUFGF
PRAIRIE TO PINES WEATHER ROUNDUP
NATIONAL WEATHER SERVICE EASTERN NORTH DAKOTA/GRAND FORKS ND
800 AM CDT SAT JUL 22 2017

 **SATELLITE DATA USED TO AUGMENT SKY COVER AT AUTOMATED STATIONS**
 *****  WEATHER ACROSS EASTERN NORTH DAKOTA  *****

CITY           SKY/WX    TMP DP  RH WIND       PRES   REMARKS
GRAND FORKS    FAIR      69  66  90 W7        29.79R
GRAND FORKS AF FAIR      69  65  88 W8        29.80R
GRAND CITY NWS NOT AVBL
BUXTON           N/A     66  66  97 S8          N/A
DEVILS LAKE    FAIR      66  62  87 NW14      29.87R
FARGO          FAIR      70  65  84 SW8       29.83R
WAHPETON ARPT  FAIR      68  63  83 SW6       29.86R
$$

 *****  WEATHER ACROSS CENTRAL AND WESTERN NORTH DAKOTA  *****

CITY           SKY/WX    TMP DP  RH WIND       PRES   REMARKS
JAMESTOWN      FAIR      67  63  87 SW5       29.88R
BISMARCK       FAIR      66  61  84 W6        29.95R
MINOT          FAIR      64  55  72 W9        29.92R
MINOT AFB      FAIR      62  56  80 W9        29.91R
GARRISON         N/A     60  53  77 NW7       29.94R
WILLISTON      FAIR      63  47  55 SW6       29.99R
DICKINSON      FAIR      62  52  69 SW3       30.00R
HETTINGER      FAIR      56  50  80 W3        30.04R
$$

 *****  OTHER OBSERVATIONS NORTHEAST NORTH DAKOTA  *****

CITY           SKY/WX    TMP DP  RH WIND       PRES   REMARKS
WALHALLA       NOT AVBL
LANGDON        FAIR      66  66 100 W13       29.83S
CAVALIER       FAIR      68  63  83 NW9       29.78R
GRAFTON        FAIR      72  66  83 W17G23    29.80R
CANDO          NOT AVBL
FORT TOTTEN      N/A     65  62  91 NW6       29.95S
ROLLA            N/A     64  59  82 NW13G22   29.88R
RUGBY          NOT AVBL
 ***** THE ABOVE OBSERVATIONS ARE NON NWS ARE NOT QUALITY
        CONTROLLED AND MAY MIS-REPORT RAIN FOR SNOW...
$$

 *****  OTHER OBSERVATIONS SOUTHEAST NORTH DAKOTA *****

CITY           SKY/WX    TMP DP  RH WIND       PRES   REMARKS
COOPERSTOWN    FAIR      66  64  94 W9        29.88R
VALLEY CITY    FAIR      68  68 100 SW9       29.90R
OAKES          NOT AVBL
GWINNER        SUNNY     70  66  88 CALM      29.88R
SHEYENNE NWR     N/A     68  67  96 SW7       29.95S
BUFFALO          N/A     67  65  93 E8          N/A
WYNDMERE       NOT AVBL
 ***** THE ABOVE OBSERVATIONS ARE NON NWS ARE NOT QUALITY
       CONTROLLED AND MAY MIS-REPORT RAIN FOR SNOW...
$$

  *****  WEATHER ACROSS NORTHERN MINNESOTA  *****

CITY           SKY/WX    TMP DP  RH WIND       PRES   REMARKS
FLAG ISLAND    PTSUNNY   66  63  88 S10       29.77F
WARROAD        CLOUDY    63  61  94 SW3       29.79S
ROSEAU         CLOUDY    64  59  82 S6        29.78S HAZE
HALLOCK        FAIR      70  66  88 W12       29.77R
THF RVR FALLS  FAIR      66  66 100 W15       29.81S
HALSTAD          N/A     67  64  90 W10         N/A
FOSSTON        FAIR      66  64  94 SW9       29.82R
BAUDETTE       FOG       63  63 100 SE6       29.79S VSB 1/2
WASKISH        NOT AVBL
CROOKSTON      FAIR      66  66 100 SW9       29.82R
$$
  *****  WEATHER ACROSS CENTRAL AND WEST MINNESOTA  *****

CITY           SKY/WX    TMP DP  RH WIND       PRES   REMARKS
BEMIDJI        FAIR      68  64  85 S8        29.83R
PARK RAPIDS    FAIR      67  64  90 SW5       29.82S
WADENA         FAIR      68  66  94 CALM      29.82S
DETROIT LAKES  FAIR      70  64  83 SW6       29.86R
MOORHEAD       FAIR      68  64  88 SW3       29.84R
FERGUS FALLS   FAIR      70  68  94 CALM      29.84R
ELBOW LAKE     FAIR      68  65  90 SE7       29.86R
MORRIS MN      FAIR      72  66  83 SE5       29.86S
STAPLES        FAIR      66  64  94 S6        29.81F
WHEATON        FAIR      70  64  83 S8        29.87S
$$
  *****  WEATHER ELSEWHERE ACROSS MINNESOTA  *****

CITY           SKY/WX    TMP DP  RH WIND       PRES   REMARKS
DULUTH         FAIR      61  60  97 CALM      29.85F
INTRNTL FALLS  FAIR      62  59  90 SE3       29.82R
ELY            FAIR      59  54  82 E3        29.84S
CLOQUET        CLOUDY    61  57  88 CALM      29.87R
BRAINERD       FAIR      66  65  96 S6        29.81F
HIBBING        FOG       60  60 100 SW6       29.85R VSB 1/2
ALEXANDRIA     FAIR      69  67  93 CALM      29.86F
SAINT CLOUD    PTSUNNY   68  67  96 VRB3      29.88F
MINNEAPOLIS    PTSUNNY   72  66  81 N9        29.85R
$$

  *****  WEATHER ACROSS SOUTH DAKOTA  *****

CITY           SKY/WX    TMP DP  RH WIND       PRES   REMARKS
SIOUX FALLS    FAIR      73  69  87 CALM      29.87R
BROOKINGS      FAIR      69  65  86 N10       29.92R
WATERTOWN      FAIR      70  69  97 N3        29.90S
HURON          FAIR      68  68 100 NW8       29.89R
SISSETON         N/A     69  67  93 SE3       29.87R
ABERDEEN       PTSUNNY   70  69  97 SW5       29.91R FOG
MITCHELL       CLOUDY    70  68  93 N3        29.89R
PIERRE         FAIR      70  64  81 NW14      29.91R
MOBRIDGE         N/A     69  65  86 W6        29.92R
RAPID CITY     LGT RAIN  66  46  48 NE7       30.06R
$$

  *****  SOME WEATHER IN NEARBY STATES *****

CITY           SKY/WX    TMP DP  RH WIND       PRES   REMARKS
GLASGOW MT     FAIR      62  44  51 NW6       30.07R
GREAT FALLS MT FAIR      53  37  54 CALM      30.16R
CHEYENNE WY    FAIR      64  49  57 W6        30.21R
SCOTTSBLUFF NE FAIR      67  57  70 CALM      30.06R
OMAHA NE       CLOUDY    79  75  87 NE6       29.80R
DES MOINES IA  PTSUNNY   77  74  90 SE13      29.77R
DAVENPORT IA   FAIR      70  67  90 S13       29.80R
CHICAGO IL     LGT RAIN  72  68  87 NE15      29.73F
EAU CLAIRE WI  FAIR      68  66  93 CALM      29.82F
LA CROSSE WI   CLOUDY    74  70  87 N5        29.81R
$$

  *****  SOME NATIONAL WEATHER *****

CITY           SKY/WX    TMP DP  RH WIND       PRES   REMARKS
LA GUARDIA NY  PTSUNNY   81  69  67 E10       29.89R
RALEIGH NC     FAIR      83  74  74 SW9       29.99S
ATLANTA GA     FAIR      77  73  87 SW5       30.06R
NEW ORLEANS LA PTSUNNY   83  76  79 N3        30.04R HX  91
OKLAHOMA CITY  FAIR      79  69  71 S10       29.93R
ALBUQUERQUE NM FAIR      67  58  72 SE6       30.18R
SALT LAKE CITY FAIR      76  56  49 S9        30.09R
LOS ANGELES CA CLOUDY    68  64  87 CALM      29.90S
BOISE ID       FAIR      61  41  47 CALM      30.11R
SEATTLE WA     CLOUDY    64  52  64 S5        30.17R
$$

*** WEATHER ACROSS MANITOBA...SASKATCHEWAN AND ONTARIO ***
                ***ONTARIO***

CITY           SKY/WX    TMP DP  RH WIND       PRES   REMARKS
GERALDTON      CLOUDY    59  45  58 E8        29.94R
THUNDER BAY    CLOUDY    63  55  77 E15       29.87R
SIOUX LOOKOUT  PTSUNNY   63  54  72 SE6       29.87R
TORONTO        CLOUDY    72  59  64 NE6       29.89S
BIG TROUT LK   SUNNY     61  48  63 NE3       29.96R
PICKLE LAKE    PTSUNNY   61  45  55 E9        29.94R
DRYDEN         CLOUDY    63  57  82 E5        29.84R
KENORA         PTSUNNY   64  59  82 SE8       29.81R
$$
                *** MANITOBA***

CITY           SKY/WX    TMP DP  RH WIND       PRES   REMARKS
BRANDON        PTSUNNY   61  59  94 NW16      29.82R
DAUPHIN        HVY RAIN  59  57  94 NW8       29.83R FOG
ISLAND LAKE    NOT AVBL
PILOT MOUND      N/A     61  59  94 W13G20      N/A
THE PAS        PTSUNNY   63  50  63 NE8       29.90R
THOMPSON       MOSUNNY   57  48  72 CALM      29.96R
WINNIPEG       PTSUNNY   64  63  94 SW3       29.73F
LYNN LAKE      SUNNY     55  50  82 CALM      29.96S
CHURCHILL      SUNNY     59  46  63 W9        29.94S
$$
                ***SASKATCHEWAN***

CITY           SKY/WX    TMP DP  RH WIND       PRES   REMARKS
ESTEVAN        PTSUNNY   55  55 100 SW6       29.97R
KINDERSLEY     MOSUNNY   52  52 100 VRB2      30.03R
LLOYDMINSTER   FOG       55  55 100 W5        29.99S VSB 3/8
PRINCE ALBERT  PTSUNNY   55  55 100 CALM      29.98S
REGINA         MOSUNNY   55  54  94 W5        29.97R
YORKTON        LGT RAIN  57  57 100 W8        29.89S
N. BATTLEFORD  FOG       55  54  94 NW6       30.01R VS



USA.gov is the U.S. government's official web portal to all federal, state and local government web resources and services.